STARLINK-3995, 52632

Orbit data source: Space-Track

STARLINK-3995, 52632 is a payload satellite owned by SpaceX/Seattle (US) in LEO that was launched on Sat, 14 May 2022 UTC via an FALCON 9 launch vehicle from the Air Force Eastern Test Range (AFETR). Payload-class satellites include a variety of spacecraft equipped with specific instruments for various scientific and technological missions. These include communications satellites like Starlink; space stations such as the ISS; scientific satellites like the Hubble; Earth observation satellites from companies like Planet Labs, Umbra, and HawkEye 360; GPS; miniature CubeSats for education and research; and military/defense satellites.

Loading next visibility...
Identifier
52632, 2022-052AL
Orbit
LEO
Country
Flag of USUS
Related business
Manufacturer
SpaceX/Seattle
Mission
Operational Commercial Communications
Bus & Motor
STARLINK, Unknown motor
Mass
297 kg wet, ~275 kg dry
Launch date (UTC)
2022-05-14 (4 years ago)
Launch vehicle
FALCON 9
Launch site
Air Force Eastern Test Range (AFETR)
Object type
Payload
Rocket body
Debris
Shape & HBR
Box + 1 Pan, 10.1 m
Radar Cross Section
13.562 m², Large (>1 m²)

Expand to show TLE details & history
Last TLE update: 2 days ago

TLE from 2 days ago
0 STARLINK-3995
1 52632U 22052AL  26171.25892139  .00000546  00000-0  52416-4 0  9992
2 52632  53.1610 168.5572 0001356  78.7488 281.3656 15.08834011226481
Epoch: 2026-06-20T06:12Z
TLE epoch observation values (Epoch: 2026-06-20T06:12:50.808Z)
Latitude
0.00002°
Longitude
166.8694°
Altitude
540.468 km
Speed
7.593 km/s
True Right ascension
11h 14m 13s
True Declination
0° 00' 00"
Sunlit
Object was in daylight at epoch
Visualization orbit readout
Latitude
Unknown
Longitude
Unknown
Altitude
Unknown
Speed
Unknown
Apparent Right ascension
Unknown
Apparent Declination
Unknown
Sunlit
N/A
Visualization observer readout
Local Sidereal Time
21:28:00
Azimuth
Unknown
Elevation
Unknown
Doppler factor
Unknown
Orbital elements
Apogee altitude
540.954 km
Perigee altitude
539.078 km
Semi-major axis
6,918.153 km
Eccentricity
0.00014
Inclination
53.161°
RAAN
168.5572°
Arg. of periapsis
78.7488°
True anomaly
281.35037°
Mean anomaly
281.3656°
Eccentric anomaly
281.35798°
Mean motion
3.77188 °/min
Orbital period
95.44 mins
BSTAR
0.000052416
Loading maneuver chart data...
Computing Atmospheric mass density...
Loading historical data...
Loading historical data...
Loading historical data...
Loading historical data...
Loading historical data...
Loading historical data...
Loading historical data...

Documentation

Showing up to 5 results
|